[[{"header":{"parameterUnit":"m.s-1","parameterCategory":1,"la1":30.2992,"la2":30.254,"lo1":-89.0895,"lo2":-89.0443,"dy":0.0025,"dx":0.0025,"nx":19,"ny":19,"refTime":"2026-03-24T21:00:00:Z","depth":0,"parameterNumber":2,"parameterNumberName":"U-component_of_WINDS"},"data":[0,0,0,-2.7883,-2.7886,-2.8049,-2.8049,-2.8248,-2.825,0,0,0,0,0,0,0,0,0,0,0,-2.7831,-2.7832,-2.7883,-2.7887,-2.8049,-2.805,-2.8248,-2.825,0,0,0,0,0,0,0,0,0,0,0,-2.783,-2.7832,-2.7833,-2.7887,-2.8049,-2.805,-2.8247,-2.8128,0,0,0,0,0,0,0,0,0,0,-2.7971,-2.792,-2.7831,-2.7833,-2.7888,-2.8048,-2.805,-2.8122,-2.8135,-2.8171,0,-2.8203,0,-2.823,-2.8263,-2.8263,0,0,0,-2.7889,-2.7909,-2.7956,-2.7833,-2.789,-2.8048,-2.7976,-2.813,-2.8144,-2.8188,-2.8206,-2.8214,-2.8233,-2.8264,-2.8265,-2.8467,-2.8468,0,0,-2.788,-2.7857,-2.7946,-2.7966,-2.7942,-2.7971,-2.7981,-2.8139,-2.8156,-2.8207,-2.8219,-2.8236,-2.8265,-2.8267,-2.8466,-2.8467,0,0,0,-2.7853,-2.7851,-2.7895,-2.7957,-2.7987,-2.7976,-2.7988,-2.8149,-2.8165,-2.8221,-2.8239,-2.8266,-2.8269,-2.8465,-2.8466,-2.8483,0,0,0,-2.7848,-2.7835,-2.7891,-2.7878,-2.7984,-2.807,-2.7994,-2.8154,-2.8173,-2.8238,-2.8266,-2.8271,-2.8464,-2.8466,-2.8481,-2.8494,0,0,0,-2.7821,-2.7832,-2.7854,-2.7877,-2.7946,-2.8068,-2.8094,-2.8159,-2.8184,-2.8263,-2.8271,-2.8464,-2.8466,-2.8479,-2.8491,-2.8539,0,0,0,-2.7786,-2.7867,-2.7854,-2.7951,-2.7945,-2.8079,-2.8093,-2.8194,-2.8265,-2.8267,-2.8464,-2.8466,-2.8478,-2.8489,-2.8536,-2.8573,-2.8587,0,0,-2.7874,-2.7876,-2.7935,-2.7929,-2.8059,-2.8056,-2.8189,-2.8275,-2.8304,-2.841,-2.8416,-2.8482,-2.849,-2.8538,-2.8679,-2.869,0,0,0,-2.7955,-2.7996,-2.8036,-2.8103,-2.8173,-2.8232,-2.8301,-2.8333,-2.8425,-2.8354,-2.8515,-2.852,-2.8549,-2.8568,-2.8577,-2.8602,-2.8475,-2.8475,-2.8474,-2.8043,-2.8077,-2.8176,-2.8229,-2.8295,-2.8366,-2.8421,-2.8476,-2.849,-2.8528,-2.8558,-2.864,-2.8661,-2.8668,-2.8694,-2.8583,-2.8583,-2.8583,-2.8583,-2.8173,-2.8235,-2.8255,-2.8357,-2.8393,-2.8479,-2.8551,-2.8558,-2.8643,-2.8619,-2.8646,-2.8615,-2.8679,-2.8703,-2.8585,-2.8585,-2.8585,-2.8584,-2.8584,-2.8231,-2.8267,-2.8307,-2.8408,-2.8482,-2.8534,-2.8615,-2.8644,-2.8672,-2.87,-2.8734,-2.8734,-2.8735,-2.8715,-2.8715,-2.8716,-2.8716,-2.8716,-2.8716,-2.8275,-2.8319,-2.8384,-2.8466,-2.8513,-2.8579,-2.8653,-2.87,-2.8759,-2.8774,-2.8775,-2.8783,-2.868,-2.8652,-2.8721,-2.872,-2.8719,-2.8719,-2.8719,-2.8387,-2.8367,-2.8466,-2.8514,-2.8613,-2.8684,-2.8723,-2.8816,-2.8859,-2.8898,-2.8903,-2.8823,-2.8826,-2.8819,-2.8795,-2.8897,-2.8897,-2.8897,-2.8897,-2.8434,-2.844,-2.8549,-2.8623,-2.8699,-2.8744,-2.8855,-2.8914,-2.8971,-2.9,-2.8991,-2.8963,-2.8955,-2.8963,-2.8953,-2.8931,-2.9065,-2.9065,-2.9065,-2.8503,-2.8519,-2.8606,-2.8664,-2.8744,-2.8812,-2.8916,-2.9,-2.9061,-2.9073,-2.9023,-2.9016,-2.8972,-2.8956,-2.8962,-2.8945,-2.8906,0,0]},{"header":{"parameterUnit":"m.s-1","parameterCategory":1,"la1":30.2992,"la2":30.254,"lo1":-89.0895,"lo2":-89.0443,"dy":0.0025,"dx":0.0025,"nx":19,"ny":19,"refTime":"2026-03-24T21:00:00:Z","depth":0,"parameterNumber":3,"parameterNumberName":"V-component_of_WINDS"},"data":[0,0,0,0.5137,0.5137,0.5121,0.5121,0.5108,0.5108,0,0,0,0,0,0,0,0,0,0,0,0.5146,0.5146,0.5137,0.5137,0.5121,0.5121,0.5108,0.5108,0,0,0,0,0,0,0,0,0,0,0,0.5146,0.5146,0.5147,0.5137,0.5121,0.5121,0.5108,0.5117,0,0,0,0,0,0,0,0,0,0,0.5131,0.5144,0.5146,0.5147,0.5137,0.5121,0.5121,0.5117,0.5116,0.5118,0,0.5121,0,0.5115,0.5107,0.5107,0,0,0,0.5133,0.5145,0.5137,0.5147,0.5137,0.5121,0.5127,0.5117,0.5116,0.5117,0.5121,0.512,0.5114,0.5107,0.5107,0.5133,0.5133,0,0,0.5134,0.5146,0.5138,0.5136,0.514,0.5128,0.5127,0.5116,0.5121,0.5121,0.512,0.5114,0.5107,0.5107,0.5133,0.5133,0,0,0,0.5139,0.5146,0.5138,0.5137,0.5134,0.5127,0.5126,0.5121,0.5118,0.512,0.5114,0.5107,0.5107,0.5132,0.5133,0.5161,0,0,0,0.5139,0.5149,0.5139,0.5146,0.5134,0.5128,0.5132,0.5119,0.5117,0.5114,0.5107,0.5107,0.5132,0.5133,0.5159,0.5171,0,0,0,0.5146,0.515,0.515,0.5147,0.5141,0.5128,0.5123,0.5118,0.5114,0.5107,0.5107,0.5132,0.5133,0.5158,0.5169,0.5182,0,0,0,0.5156,0.5173,0.515,0.5168,0.5141,0.5145,0.5123,0.5125,0.5123,0.5107,0.5132,0.5133,0.5157,0.5168,0.5181,0.5196,0.5203,0,0,0.5184,0.5177,0.5186,0.5165,0.5177,0.5147,0.5162,0.5148,0.5135,0.5134,0.5135,0.516,0.5169,0.5182,0.524,0.5246,0,0,0,0.5199,0.5206,0.5207,0.5206,0.5197,0.519,0.5173,0.5168,0.5167,0.5138,0.5168,0.5173,0.518,0.5186,0.5191,0.5197,0.5137,0.5136,0.5136,0.5256,0.5241,0.5256,0.5239,0.5239,0.5222,0.5221,0.5211,0.5194,0.5202,0.5201,0.5239,0.5247,0.525,0.5257,0.5208,0.5208,0.5208,0.5208,0.5296,0.5304,0.5284,0.5291,0.5275,0.528,0.5265,0.5254,0.5257,0.5237,0.5243,0.5223,0.5258,0.5262,0.521,0.521,0.521,0.5209,0.5209,0.5331,0.5333,0.5328,0.5327,0.5328,0.5311,0.5315,0.53,0.5286,0.5291,0.529,0.5289,0.5287,0.5292,0.5292,0.5292,0.5292,0.5292,0.5292,0.537,0.5364,0.5369,0.5363,0.5362,0.5358,0.5343,0.5341,0.5335,0.5324,0.5324,0.5307,0.5264,0.5253,0.5294,0.5294,0.5294,0.5293,0.5293,0.5416,0.5404,0.5413,0.5412,0.5404,0.5407,0.5389,0.5387,0.5383,0.5386,0.5368,0.5339,0.533,0.5326,0.5317,0.5371,0.5371,0.5371,0.5371,0.5446,0.544,0.5447,0.5447,0.5445,0.543,0.5441,0.5431,0.5417,0.5414,0.5404,0.5391,0.5388,0.5381,0.5375,0.5367,0.5433,0.5433,0.5433,0.5473,0.5468,0.548,0.5468,0.5461,0.5456,0.5467,0.5467,0.5449,0.5435,0.5412,0.5409,0.5388,0.5382,0.5367,0.5359,0.5343,0,0]}]]